Weather Roundup
Issued by NWS Chicago, IL

Home | Current Version | Previous Version | Graphics & Text | Print | Product List | Glossary On
Versions: 1 2 3 4 5 6 7 8 9 10 11 12 13 14 15 16 17 18 19 20 21 22 23 24 25 26 27 28 29 30 31 32 33 34 35 36 37 38 39 40 41 42 43 44 45 46 47 48 49 50
000
NZUS59 KLOT 260109
HRRLOT

CHICAGO AREA WEATHER ROUNDUP
NATIONAL WEATHER SERVICE CHICAGO/ROMEOVILLE IL
800 PM CDT MON SEP 25 2017

NOTE: "FAIR" INDICATES FEW OR NO CLOUDS BELOW 12,000 FEET WITH NO
SIGNIFICANT WEATHER AND/OR OBSTRUCTIONS TO VISIBILITY.

* THESE STATIONS ARE NOT UNDER NWS QUALITY CONTROL. THEY ALSO MAY NOT
  REPORT WEATHER SUCH AS PRECIPITATION OR FOG.

ILZ005-006-012>014-019>023-260200-
NORTHEAST ILLINOIS

CITY           SKY/WX    TMP DP  RH WIND       PRES   REMARKS
OHARE          PTCLDY    81  55  40 SE8       29.93R HX  81
MIDWAY         PTCLDY    82  59  45 SE7       29.94R HX  82
AURORA         CLOUDY    78  62  57 SE6       29.94R HX  80
LANSING*       CLEAR     75  62  62 SE3       29.95R
JOLIET*        PTCLDY    82  60  48 SE3       29.94R HX  82
WAUKEGAN       CLEAR     76  63  64 SE6       29.94R
DUPAGE AIRPORT CLEAR     80  60  50 SE3       29.94R HX  81
WHEELING       CLEAR     79  59  50 SE5       29.95R HX  80
MORRIS*        MOCLDY    79  61  54 SE5       29.93R HX  80
LEWIS AIRPORT* CLEAR     76  60  56 SE7       29.95R
NORTHERLY ISL    N/A     74  63  68 S3          N/A
$$

WIZ051-052-058>065-066-070>072-260200-
SOUTHEAST WISCONSIN

CITY           SKY/WX    TMP DP  RH WIND       PRES   REMARKS
MILWAUKEE      PTCLDY    78  59  51 S8        29.94R
KENOSHA*       CLEAR     76  60  57 SE6       29.95R
RACINE*        CLEAR     77  62  59 S7        29.96R
WAUKESHA       CLEAR     75  55  50 SE6       29.96R
WEST BEND        N/A     73  55  53 S3        29.95R
$$

INZ001>003-010>013-019-020-260200-
NORTHWEST INDIANA

CITY           SKY/WX    TMP DP  RH WIND       PRES   REMARKS
GARY*          CLEAR     70  61  73 CALM      29.95R
MICHIGAN CITY* NOT AVBL
RENSSELAER*    NOT AVBL
VALPARAISO     CLEAR     74  57  55 SE3       29.97R
$$

LMZ740>746-260200-
SOUTHERN LAKE MICHIGAN

STATION/POSITION TIME  SKY/WX   TEMP WIND        PRES    VSBY
                                AIR  DIR/SP/G
                 (UTC)          (F)  (DEG/KT/KT) (MB)    (MI)
HARRISON CRIB    0040            79  130/ 14/ 14   N/A
BURNHAM HARBOR   0100            74                N/A
CALUMET HARBOR   0048            79  130/  2/  5 1013.5R
BURNS HARBOR     0040            84  150/  3/ 10 1014.6R
MICHIGAN CITY    0040            80  120/  5/  5   N/A
$$

ABBREVIATIONS USED IN REMARKS
   TC - TEMPERATURE IN CELSIUS
  WCI - WIND CHILL INDEX
   HX - HEAT INDEX
  VSB - VISIBILITY
$$




USA.gov is the U.S. government's official web portal to all federal, state and local government web resources and services.